Flag for Canada Weather past 2 weeks in Edmundston, New Brunswick, Canada

Now
19 °F

Cold.


Feels Like: 14 °F
Forecast: 11 / 22 °F
Wind: 3 mph from South

Location: St Leonard

Current Time: Dec 20, 2014 at 1:38:23 PM

Latest Report: Dec 20, 2014 at 1:00 PM


Visibility: N/A

Pressure: 30.37 "Hg

Humidity: 83%

Dew point: 15 °F

Location of EdmundstonLocation

Historic Weather in Edmundston — Graph

°F

Edmundston temperature yesterday

Maximum temperature yesterday: 26 °F (at 2:00 PM)
Minimum temperature yesterday: 13 °F (at 11:00 PM)
Average temperature yesterday: 22 °F

Past Weeks' High & Low Weather Summary

 TemperatureHumidityPressure
High40 °F (Dec 11, 3:00 PM)100% (Dec 6, 4:00 PM)30.86 "Hg (Dec 6, 4:00 PM)
Low-14 °F (Dec 8, 8:00 AM)59% (Dec 7, 3:00 PM)29.56 "Hg (Dec 18, 2:00 PM)
Average23 °F92%30.08 "Hg
* Reported Dec 5 12:00 Noon — Dec 20 12:00 Noon, Edmundston, Weather by CustomWeather, © 2014

Note: Actual official high and low records may vary slightly from our data, if they occured in-between our weather recording intervals... More about our weather records

Advertising

Edmundston weather history for previous 24 hours

 ConditionsComfort  
Time TempWeatherWind HumidityBarometerVisibility
12:00 PM
Dec 20
17 °FCold.1 mph92%30.37 "HgN/A
11:00 AM14 °FCold.1 mph95%30.39 "HgN/A
10:00 AM11 °FCold.No wind92%30.38 "HgN/A
9:00 AM8 °FFrigid.2 mph100%30.36 "HgN/A
8:00 AM9 °FFrigid.2 mph94%30.33 "HgN/A
7:00 AM6 °FFrigid.2 mph93%30.32 "HgN/A
6:00 AM2 °FFrigid.1 mph94%30.29 "HgN/A
5:00 AM1 °FFrigid.1 mph97%30.27 "HgN/A
4:00 AM6 °FFrigid.2 mph92%30.24 "HgN/A
3:00 AM3 °FFrigid.1 mph90%30.23 "HgN/A
2:00 AM10 °FCold.2 mph95%30.20 "HgN/A
1:00 AM6 °FFrigid.1 mph91%30.18 "HgN/A
12:00 AM7 °FFrigid.1 mph91%30.16 "HgN/A
11:00 PM
Dec 19
13 °FCold.No wind92%30.14 "HgN/A
10:00 PM14 °FCold.2 mph94%30.11 "HgN/A
9:00 PM15 °FCold.2 mph93%30.10 "HgN/A
8:00 PM16 °FCold.6 mph89%30.07 "HgN/A
7:00 PM17 °FCold.5 mph91%30.03 "HgN/A
6:00 PM20 °FCold.8 mph88%29.99 "HgN/A
5:00 PM23 °FCold.6 mph88%29.95 "HgN/A
4:00 PM25 °FChilly.9 mph87%29.91 "HgN/A
3:00 PM26 °FChilly.9 mph88%29.89 "HgN/A
2:00 PM26 °FChilly.8 mph90%29.88 "HgN/A
1:00 PM25 °FChilly.9 mph93%29.86 "HgN/A
Weather by CustomWeather, © 2014

See weather overviewHow to use our weather pages